| time (UTC) | temp F | wind direction | speed knots | gust knots | rain 1hr in | rain 24hr in | rain mn in | humidity % | barometer mb |
| 20260507033906 | 63 | 7 | 7.8 | 14.8 | 0.00 | 0.17 | 0.17 | 90 | 1016.1 |
| 20260507033405 | 63 | 20 | 7.8 | 19.1 | 0.00 | 0.17 | 0.17 | 90 | 1016.2 |
| 20260507032406 | 63 | 358 | 12.2 | 22.6 | 0.00 | 0.17 | 0.17 | 90 | 1016.3 |
| 20260507031906 | 63 | 8 | 9.6 | 18.2 | 0.00 | 0.17 | 0.17 | 90 | 1016.3 |
| 20260507031405 | 63 | 13 | 8.7 | 14.8 | 0.00 | 0.17 | 0.17 | 90 | 1016.3 |
| 20260507030906 | 63 | 9 | 11.3 | 24.3 | 0.00 | 0.17 | 0.17 | 90 | 1016.4 |
| 20260507030406 | 63 | 0 | 5.2 | 18.2 | 0.00 | 0.17 | 0.17 | 90 | 1016.5 |
| 20260507025906 | 63 | 12 | 13.9 | 25.2 | 0.00 | 0.17 | 0.17 | 90 | 1016.6 |
| 20260507025405 | 63 | 14 | 8.7 | 26.9 | 0.00 | 0.17 | 0.17 | 90 | 1016.6 |
| 20260507024906 | 63 | 11 | 9.6 | 25.2 | 0.00 | 0.17 | 0.17 | 90 | 1016.7 |
| 20260507024405 | 63 | 8 | 10.4 | 20.9 | 0.00 | 0.17 | 0.17 | 90 | 1016.7 |
| 20260507023406 | 63 | 355 | 8.7 | 17.4 | 0.00 | 0.17 | 0.17 | 90 | 1017.0 |
| 20260507021906 | 63 | 16 | 9.6 | 19.1 | 0.00 | 0.17 | 0.17 | 90 | 1017.1 |
| 20260507021405 | 63 | 7 | 12.2 | 20.9 | 0.01 | 0.17 | 0.17 | 90 | 1017.4 |
| 20260507020906 | 63 | 8 | 7.8 | 20.9 | 0.02 | 0.17 | 0.17 | 90 | 1017.3 |
| 20260507020408 | 63 | 2 | 11.3 | 22.6 | 0.02 | 0.17 | 0.17 | 91 | 1017.3 |
| 20260507015406 | 63 | 9 | 9.6 | 19.1 | 0.02 | 0.17 | 0.17 | 91 | 1017.4 |
| 20260507014406 | 63 | 3 | 11.3 | 19.1 | 0.02 | 0.17 | 0.17 | 91 | 1017.7 |
| 20260507013906 | 63 | 358 | 12.2 | 26.1 | 0.02 | 0.17 | 0.17 | 91 | 1017.8 |
| 20260507013405 | 63 | 10 | 10.4 | 19.1 | 0.02 | 0.17 | 0.17 | 90 | 1017.8 |
| 20260507012905 | 63 | 10 | 12.2 | 21.7 | 0.02 | 0.17 | 0.17 | 90 | 1017.9 |
| 20260507011906 | 63 | 1 | 8.7 | 20.9 | 0.02 | 0.17 | 0.17 | 90 | 1018.0 |
| 20260507011405 | 63 | 3 | 6.1 | 17.4 | 0.02 | 0.17 | 0.16 | 91 | 1018.2 |
| 20260507010905 | 63 | 355 | 8.7 | 22.6 | 0.01 | 0.16 | 0.15 | 91 | 1018.3 |
| 20260507010405 | 63 | 0 | 7.0 | 17.4 | 0.01 | 0.16 | 0.15 | 91 | 1018.4 |
| 20260507005906 | 63 | 4 | 10.4 | 19.1 | 0.01 | 0.16 | 0.15 | 91 | 1018.6 |
| 20260507005406 | 63 | 359 | 6.1 | 15.6 | 0.01 | 0.15 | 0.14 | 91 | 1018.6 |
| 20260507004905 | 63 | 14 | 9.6 | 22.6 | 0.02 | 0.15 | 0.14 | 90 | 1018.7 |
| 20260507003906 | 63 | 24 | 7.8 | 15.6 | 0.04 | 0.15 | 0.14 | 91 | 1018.9 |
| 20260507003407 | 63 | 7 | 10.4 | 19.1 | 0.04 | 0.15 | 0.14 | 91 | 1018.9 |
| 20260507002906 | 63 | 13 | 13.9 | 22.6 | 0.04 | 0.15 | 0.14 | 91 | 1019.0 |
| 20260507002407 | 63 | 2 | 7.0 | 12.2 | 0.04 | 0.15 | 0.14 | 90 | 1019.1 |
| 20260507001907 | 63 | 16 | 12.2 | 20.0 | 0.04 | 0.15 | 0.14 | 90 | 1019.2 |
| 20260507001407 | 63 | 356 | 11.3 | 15.6 | 0.04 | 0.15 | 0.14 | 90 | 1019.2 |
| 20260507000906 | 63 | 16 | 9.6 | 17.4 | 0.04 | 0.15 | 0.14 | 90 | 1019.4 |
| 20260507000406 | 62 | 7 | 7.0 | 14.8 | 0.04 | 0.15 | 0.14 | 90 | 1019.4 |
| 20260506235906 | 62 | 8 | 10.4 | 22.6 | 0.04 | 0.15 | 0.14 | 90 | 1019.4 |
| 20260506235408 | 62 | 8 | 6.1 | 15.6 | 0.03 | 0.14 | 0.13 | 90 | 1019.6 |
| 20260506234906 | 63 | 344 | 8.7 | 17.4 | 0.02 | 0.13 | 0.13 | 90 | 1019.6 |
| 20260506234407 | 63 | 6 | 7.0 | 17.4 | 0.02 | 0.13 | 0.12 | 90 | 1019.7 |
| 20260506233906 | 63 | 6 | 10.4 | 15.6 | 0.00 | 0.11 | 0.10 | 90 | 1019.8 |
| 20260506232407 | 63 | 7 | 4.3 | 18.2 | 0.00 | 0.11 | 0.10 | 90 | 1019.8 |
| 20260506231906 | 63 | 14 | 7.0 | 13.0 | 0.00 | 0.11 | 0.10 | 89 | 1019.8 |
| 20260506231408 | 63 | 22 | 8.7 | 18.2 | 0.00 | 0.11 | 0.10 | 89 | 1020.1 |
| 20260506230906 | 63 | 10 | 7.8 | 13.9 | 0.00 | 0.11 | 0.10 | 89 | 1020.0 |
| 20260506230406 | 63 | 23 | 7.0 | 12.2 | 0.00 | 0.11 | 0.10 | 89 | 1020.0 |
| 20260506225906 | 63 | 6 | 4.3 | 13.0 | 0.00 | 0.11 | 0.10 | 89 | 1020.1 |
| 20260506224906 | 63 | 5 | 5.2 | 11.3 | 0.00 | 0.11 | 0.10 | 89 | 1020.1 |
| 20260506224406 | 63 | 6 | 7.8 | 12.2 | 0.00 | 0.11 | 0.10 | 89 | 1020.2 |
| 20260506223907 | 63 | 10 | 7.8 | 13.9 | 0.00 | 0.11 | 0.10 | 89 | 1020.2 |
| 20260506223407 | 63 | 3 | 9.6 | 14.8 | 0.00 | 0.11 | 0.10 | 89 | 1020.3 |
| 20260506222907 | 63 | 17 | 6.1 | 12.2 | 0.00 | 0.11 | 0.10 | 89 | 1020.3 |
| 20260506222408 | 63 | 6 | 7.8 | 19.1 | 0.00 | 0.11 | 0.10 | 89 | 1020.4 |
| 20260506220406 | 63 | 4 | 8.7 | 15.6 | 0.00 | 0.12 | 0.10 | 89 | 1020.5 |
| 20260506215906 | 63 | 359 | 7.0 | 13.9 | 0.00 | 0.12 | 0.10 | 89 | 1020.6 |
| 20260506215406 | 63 | 356 | 6.1 | 19.1 | 0.00 | 0.12 | 0.10 | 90 | 1020.6 |
| 20260506214906 | 63 | 6 | 7.8 | 13.0 | 0.00 | 0.12 | 0.10 | 90 | 1020.7 |
| 20260506214406 | 63 | 7 | 5.2 | 11.3 | 0.00 | 0.12 | 0.10 | 90 | 1020.8 |
| 20260506213906 | 63 | 0 | 5.2 | 12.2 | 0.00 | 0.12 | 0.10 | 90 | 1020.9 |
| 20260506212906 | 63 | 356 | 6.1 | 12.2 | 0.00 | 0.12 | 0.10 | 90 | 1021.0 |
| 20260506212406 | 63 | 11 | 6.1 | 12.2 | 0.00 | 0.12 | 0.10 | 90 | 1021.0 |
| 20260506211906 | 63 | 0 | 10.4 | 15.6 | 0.00 | 0.12 | 0.10 | 90 | 1021.1 |
| 20260506211407 | 63 | 12 | 7.8 | 17.4 | 0.00 | 0.12 | 0.10 | 90 | 1021.0 |
| 20260506210908 | 63 | 355 | 10.4 | 14.8 | 0.00 | 0.12 | 0.10 | 90 | 1021.1 |
| 20260506210407 | 63 | 7 | 7.8 | 15.6 | 0.00 | 0.12 | 0.10 | 90 | 1021.1 |
| 20260506205905 | 63 | 6 | 6.1 | 10.4 | 0.00 | 0.12 | 0.10 | 90 | 1021.1 |
| 20260506205407 | 63 | 16 | 5.2 | 12.2 | 0.00 | 0.12 | 0.10 | 90 | 1021.1 |
| 20260506204906 | 63 | 1 | 5.2 | 10.4 | 0.00 | 0.12 | 0.10 | 90 | 1021.2 |
| 20260506204406 | 63 | 16 | 6.1 | 13.9 | 0.00 | 0.12 | 0.10 | 90 | 1021.2 |
| 20260506203906 | 63 | 358 | 6.1 | 14.8 | 0.00 | 0.12 | 0.10 | 90 | 1021.3 |
| 20260506203406 | 63 | 8 | 4.3 | 13.9 | 0.00 | 0.12 | 0.10 | 90 | 1021.3 |
| 20260506202906 | 63 | 21 | 8.7 | 14.8 | 0.00 | 0.12 | 0.10 | 90 | 1021.2 |
| 20260506201906 | 63 | 14 | 5.2 | 10.4 | 0.00 | 0.12 | 0.10 | 90 | 1021.3 |
| 20260506201406 | 63 | 95 | 5.2 | 14.8 | 0.00 | 0.12 | 0.10 | 90 | 1021.3 |
| 20260506200906 | 63 | 13 | 7.0 | 13.0 | 0.00 | 0.12 | 0.10 | 90 | 1021.3 |
| 20260506194906 | 63 | 10 | 4.3 | 13.9 | 0.00 | 0.12 | 0.10 | 91 | 1021.3 |
| 20260506194406 | 63 | 0 | 7.0 | 14.8 | 0.00 | 0.12 | 0.10 | 91 | 1021.2 |
| 20260506193906 | 63 | 358 | 7.0 | 12.2 | 0.00 | 0.12 | 0.10 | 90 | 1021.3 |
| 20260506192906 | 62 | 13 | 8.7 | 17.4 | 0.00 | 0.12 | 0.10 | 90 | 1021.2 |
| 20260506191906 | 62 | 6 | 11.3 | 20.0 | 0.00 | 0.12 | 0.10 | 90 | 1021.2 |
| 20260506191406 | 62 | 2 | 10.4 | 15.6 | 0.00 | 0.12 | 0.10 | 91 | 1021.1 |
| 20260506190906 | 62 | 3 | 7.0 | 17.4 | 0.00 | 0.12 | 0.10 | 91 | 1021.1 |
| 20260506190405 | 62 | 6 | 7.8 | 15.6 | 0.00 | 0.12 | 0.10 | 90 | 1021.2 |
| 20260506185906 | 62 | 10 | 10.4 | 17.4 | 0.00 | 0.12 | 0.10 | 90 | 1021.1 |
| 20260506185406 | 62 | 9 | 6.1 | 20.0 | 0.00 | 0.12 | 0.10 | 90 | 1021.1 |
| 20260506184906 | 62 | 20 | 10.4 | 17.4 | 0.00 | 0.12 | 0.10 | 90 | 1021.1 |
| 20260506183405 | 62 | 9 | 7.8 | 12.2 | 0.00 | 0.12 | 0.10 | 90 | 1021.2 |
| 20260506182905 | 62 | 9 | 7.0 | 13.9 | 0.00 | 0.12 | 0.10 | 90 | 1021.3 |
| 20260506182406 | 61 | 8 | 7.8 | 13.0 | 0.00 | 0.12 | 0.10 | 90 | 1021.3 |
| 20260506181905 | 61 | 11 | 5.2 | 13.0 | 0.00 | 0.12 | 0.10 | 90 | 1021.4 |
| 20260506180905 | 61 | 13 | 4.3 | 10.4 | 0.00 | 0.12 | 0.10 | 91 | 1021.4 |
| 20260506180405 | 62 | 351 | 4.3 | 8.7 | 0.00 | 0.12 | 0.10 | 91 | 1021.4 |
| 20260506174905 | 62 | 13 | 7.8 | 13.9 | 0.00 | 0.12 | 0.10 | 91 | 1021.5 |
| 20260506173406 | 62 | 357 | 2.6 | 14.8 | 0.00 | 0.12 | 0.10 | 91 | 1021.4 |
| 20260506172906 | 62 | 8 | 5.2 | 11.3 | 0.00 | 0.12 | 0.10 | 91 | 1021.4 |
| 20260506172406 | 62 | 13 | 8.7 | 13.9 | 0.00 | 0.12 | 0.10 | 91 | 1021.4 |
| 20260506171905 | 62 | 13 | 7.8 | 13.0 | 0.00 | 0.12 | 0.10 | 91 | 1021.5 |
| 20260506171406 | 62 | 3 | 8.7 | 15.6 | 0.00 | 0.12 | 0.10 | 91 | 1021.6 |
| 20260506170906 | 62 | 5 | 10.4 | 19.1 | 0.00 | 0.12 | 0.10 | 91 | 1021.7 |
| 20260506170406 | 62 | 5 | 4.3 | 12.2 | 0.00 | 0.12 | 0.10 | 91 | 1021.6 |
| 20260506165906 | 62 | 4 | 8.7 | 13.0 | 0.00 | 0.12 | 0.10 | 91 | 1021.6 |
| 20260506165406 | 62 | 12 | 7.8 | 13.0 | 0.00 | 0.12 | 0.10 | 91 | 1021.7 |
| 20260506164906 | 62 | 14 | 6.1 | 13.0 | 0.01 | 0.12 | 0.10 | 91 | 1021.7 |
| 20260506163905 | 62 | 0 | 7.8 | 17.4 | 0.02 | 0.12 | 0.10 | 91 | 1021.8 |
| 20260506163406 | 62 | 12 | 9.6 | 13.0 | 0.03 | 0.12 | 0.10 | 91 | 1021.9 |
| 20260506162905 | 62 | 3 | 6.1 | 14.8 | 0.04 | 0.12 | 0.10 | 91 | 1021.9 |
| 20260506162406 | 62 | 11 | 5.2 | 14.8 | 0.05 | 0.12 | 0.10 | 91 | 1022.0 |
| 20260506161906 | 62 | 17 | 5.2 | 12.2 | 0.06 | 0.12 | 0.10 | 90 | 1022.0 |
| 20260506161406 | 62 | 1 | 8.7 | 15.6 | 0.09 | 0.12 | 0.10 | 90 | 1022.1 |
| 20260506160906 | 61 | 356 | 3.5 | 13.9 | 0.09 | 0.12 | 0.10 | 91 | 1022.2 |
| 20260506160405 | 61 | 2 | 6.1 | 14.8 | 0.09 | 0.12 | 0.10 | 90 | 1022.2 |
| 20260506155906 | 61 | 17 | 5.2 | 13.0 | 0.10 | 0.12 | 0.10 | 90 | 1022.3 |
| 20260506155405 | 61 | 16 | 7.0 | 11.3 | 0.10 | 0.12 | 0.10 | 90 | 1022.3 |
| 20260506154405 | 62 | 24 | 7.8 | 13.9 | 0.09 | 0.11 | 0.09 | 90 | 1022.5 |
| 20260506153905 | 62 | 355 | 8.7 | 17.4 | 0.08 | 0.09 | 0.08 | 90 | 1022.5 |
| 20260506153406 | 62 | 350 | 3.5 | 10.4 | 0.07 | 0.09 | 0.07 | 90 | 1022.6 |
| 20260506152906 | 62 | 358 | 1.7 | 10.4 | 0.06 | 0.08 | 0.06 | 90 | 1022.6 |
| 20260506152405 | 62 | 6 | 6.1 | 14.8 | 0.06 | 0.07 | 0.06 | 90 | 1022.7 |
| 20260506151905 | 62 | 13 | 6.1 | 11.3 | 0.04 | 0.06 | 0.04 | 90 | 1022.8 |
| 20260506150905 | 62 | 12 | 5.2 | 10.4 | 0.01 | 0.02 | 0.01 | 90 | 1022.8 |
| 20260506150405 | 62 | 13 | 2.6 | 8.7 | 0.01 | 0.02 | 0.01 | 90 | 1022.9 |
| 20260506145906 | 62 | 18 | 4.3 | 11.3 | 0.00 | 0.02 | 0.00 | 90 | 1023.1 |
| 20260506145406 | 62 | 25 | 6.1 | 10.4 | 0.00 | 0.02 | 0.00 | 90 | 1023.2 |
| 20260506144906 | 62 | 23 | 1.7 | 7.8 | 0.00 | 0.02 | 0.00 | 89 | 1023.3 |
| 20260506144405 | 62 | 4 | 2.6 | 7.0 | 0.00 | 0.02 | 0.00 | 89 | 1023.4 |
| 20260506143905 | 62 | 6 | 6.1 | 8.7 | 0.00 | 0.02 | 0.00 | 89 | 1023.5 |
| 20260506143406 | 62 | 0 | 1.7 | 4.3 | 0.00 | 0.02 | 0.00 | 89 | 1023.6 |
| 20260506142905 | 62 | 19 | 3.5 | 7.8 | 0.00 | 0.02 | 0.00 | 89 | 1023.6 |
| 20260506142406 | 62 | 4 | 3.5 | 7.8 | 0.00 | 0.02 | 0.00 | 89 | 1023.8 |
| 20260506141906 | 62 | 18 | 4.3 | 10.4 | 0.00 | 0.02 | 0.00 | 89 | 1023.8 |
| 20260506141406 | 62 | 14 | 3.5 | 7.0 | 0.00 | 0.02 | 0.00 | 89 | 1023.9 |
| 20260506140906 | 62 | 21 | 3.5 | 10.4 | 0.00 | 0.02 | 0.00 | 89 | 1023.9 |
| 20260506135905 | 62 | 25 | 2.6 | 11.3 | 0.00 | 0.02 | 0.00 | 89 | 1024.0 |
| 20260506135406 | 62 | 29 | 4.3 | 8.7 | 0.00 | 0.02 | 0.00 | 89 | 1024.1 |
| 20260506134906 | 62 | 7 | 4.3 | 7.8 | 0.00 | 0.02 | 0.00 | 89 | 1024.1 |
| 20260506133406 | 62 | 4 | 0.9 | 4.3 | 0.00 | 0.02 | 0.00 | 89 | 1024.2 |
| 20260506132906 | 62 | 5 | 2.6 | 5.2 | 0.00 | 0.02 | 0.00 | 89 | 1024.2 |
| 20260506132406 | 62 | 8 | 1.7 | 7.0 | 0.00 | 0.02 | 0.00 | 89 | 1024.3 |
| 20260506131906 | 62 | 14 | 2.6 | 7.8 | 0.00 | 0.02 | 0.00 | 89 | 1024.3 |
| 20260506130906 | 62 | 358 | 0.9 | 1.7 | 0.00 | 0.02 | 0.00 | 89 | 1024.4 |
| 20260506130405 | 62 | 16 | 0.0 | 0.9 | 0.00 | 0.02 | 0.00 | 89 | 1024.4 |
| 20260506125905 | 62 | 16 | 0.9 | 1.7 | 0.01 | 0.02 | 0.00 | 89 | 1024.4 |
| 20260506125405 | 62 | 1 | 1.7 | 2.6 | 0.01 | 0.02 | 0.00 | 89 | 1024.5 |
| 20260506124405 | 62 | 338 | 0.0 | 0.9 | 0.01 | 0.02 | 0.00 | 89 | 1024.5 |
| 20260506123906 | 62 | 349 | 0.0 | 0.9 | 0.01 | 0.02 | 0.00 | 89 | 1024.5 |
| 20260506123406 | 62 | 346 | 0.9 | 2.6 | 0.01 | 0.02 | 0.00 | 89 | 1024.6 |
| 20260506122406 | 62 | 345 | 1.7 | 2.6 | 0.01 | 0.02 | 0.00 | 89 | 1024.6 |
| 20260506121905 | 62 | 16 | 1.7 | 2.6 | 0.01 | 0.02 | 0.00 | 89 | 1024.7 |
| 20260506121406 | 62 | 349 | 0.0 | 2.6 | 0.01 | 0.02 | 0.00 | 89 | 1024.7 |
| 20260506120905 | 62 | 0 | 2.6 | 4.3 | 0.01 | 0.02 | 0.00 | 90 | 1024.7 |
| 20260506120405 | 62 | 13 | 2.6 | 6.1 | 0.01 | 0.02 | 0.00 | 90 | 1024.7 |
| 20260506115405 | 62 | 356 | 0.9 | 7.8 | 0.00 | 0.01 | 0.01 | 90 | 1024.7 |
| 20260506114906 | 62 | 24 | 0.9 | 2.6 | 0.00 | 0.01 | 0.01 | 90 | 1024.7 |
| 20260506114405 | 62 | 22 | 0.9 | 2.6 | 0.00 | 0.01 | 0.01 | 90 | 1024.8 |
| 20260506113905 | 62 | 0 | 1.7 | 2.6 | 0.00 | 0.01 | 0.01 | 90 | 1024.8 |
| 20260506113406 | 62 | 354 | 0.9 | 4.3 | 0.00 | 0.01 | 0.01 | 90 | 1024.9 |
| 20260506112405 | 62 | 5 | 0.9 | 2.6 | 0.00 | 0.01 | 0.01 | 90 | 1025.0 |
| 20260506111905 | 62 | 355 | 1.7 | 2.6 | 0.00 | 0.01 | 0.01 | 90 | 1025.0 |
| 20260506111407 | 62 | 8 | 0.9 | 2.6 | 0.00 | 0.01 | 0.01 | 90 | 1025.0 |
| 20260506110906 | 62 | 9 | 0.9 | 1.7 | 0.00 | 0.01 | 0.01 | 89 | 1025.0 |
| 20260506110406 | 62 | 18 | 0.0 | 0.0 | 0.00 | 0.01 | 0.01 | 89 | 1025.1 |
| 20260506105407 | 62 | 18 | 0.0 | 1.7 | 0.00 | 0.01 | 0.01 | 89 | 1025.1 |
| 20260506104907 | 62 | 10 | 0.0 | 0.9 | 0.00 | 0.01 | 0.01 | 89 | 1025.2 |
| 20260506104406 | 62 | 10 | 0.9 | 2.6 | 0.00 | 0.01 | 0.01 | 89 | 1025.2 |
| 20260506103907 | 62 | 4 | 0.0 | 1.7 | 0.00 | 0.01 | 0.01 | 89 | 1025.2 |
| 20260506103405 | 62 | 4 | 0.0 | 0.9 | 0.00 | 0.01 | 0.01 | 89 | 1025.2 |
| 20260506102907 | 62 | 4 | 0.0 | 2.6 | 0.00 | 0.01 | 0.01 | 89 | 1025.3 |
| 20260506102406 | 62 | 356 | 0.0 | 2.6 | 0.00 | 0.01 | 0.01 | 89 | 1025.3 |
| 20260506101908 | 62 | 352 | 0.0 | 1.7 | 0.00 | 0.01 | 0.01 | 89 | 1025.3 |
| 20260506100906 | 62 | 357 | 0.0 | 2.6 | 0.00 | 0.01 | 0.01 | 89 | 1025.3 |
| 20260506095907 | 62 | 1 | 1.7 | 6.1 | 0.00 | 0.01 | 0.01 | 90 | 1025.2 |
| 20260506095407 | 62 | 22 | 3.5 | 5.2 | 0.00 | 0.01 | 0.01 | 90 | 1025.3 |
| 20260506094906 | 62 | 3 | 0.9 | 4.3 | 0.00 | 0.01 | 0.01 | 90 | 1025.2 |
| 20260506094406 | 62 | 356 | 0.9 | 2.6 | 0.00 | 0.01 | 0.01 | 90 | 1025.3 |
| 20260506093906 | 62 | 18 | 1.7 | 2.6 | 0.00 | 0.01 | 0.01 | 90 | 1025.2 |
| 20260506093408 | 62 | 9 | 0.9 | 2.6 | 0.00 | 0.01 | 0.01 | 90 | 1025.2 |
| 20260506092906 | 62 | 2 | 0.9 | 6.1 | 0.00 | 0.01 | 0.01 | 90 | 1025.2 |
| 20260506092406 | 62 | 28 | 0.9 | 4.3 | 0.00 | 0.01 | 0.01 | 90 | 1025.2 |
| 20260506091907 | 62 | 33 | 0.9 | 2.6 | 0.00 | 0.01 | 0.01 | 90 | 1025.2 |
| 20260506091406 | 62 | 350 | 0.9 | 2.6 | 0.00 | 0.01 | 0.01 | 90 | 1025.3 |
| 20260506090905 | 62 | 334 | 0.0 | 1.7 | 0.00 | 0.01 | 0.01 | 90 | 1025.2 |
| 20260506090405 | 62 | 330 | 0.0 | 1.7 | 0.00 | 0.01 | 0.01 | 89 | 1025.3 |
| 20260506085905 | 62 | 17 | 0.9 | 1.7 | 0.00 | 0.01 | 0.01 | 89 | 1025.2 |
| 20260506085405 | 62 | 17 | 0.9 | 0.9 | 0.00 | 0.01 | 0.01 | 89 | 1025.2 |
| 20260506084406 | 62 | 18 | 0.9 | 0.9 | 0.00 | 0.01 | 0.01 | 89 | 1025.2 |
| 20260506083907 | 62 | 18 | 1.7 | 2.6 | 0.00 | 0.01 | 0.01 | 89 | 1025.2 |
| 20260506083407 | 62 | 353 | 0.9 | 2.6 | 0.00 | 0.01 | 0.01 | 89 | 1025.2 |
| 20260506082907 | 62 | 12 | 1.7 | 2.6 | 0.00 | 0.01 | 0.01 | 89 | 1025.2 |
| 20260506082406 | 62 | 23 | 1.7 | 2.6 | 0.00 | 0.01 | 0.01 | 89 | 1025.3 |
| 20260506081906 | 62 | 355 | 2.6 | 6.1 | 0.00 | 0.01 | 0.01 | 89 | 1025.3 |
| 20260506080906 | 62 | 5 | 2.6 | 7.0 | 0.00 | 0.01 | 0.01 | 89 | 1025.4 |
| 20260506080406 | 62 | 13 | 2.6 | 7.0 | 0.00 | 0.01 | 0.01 | 89 | 1025.3 |
| 20260506073408 | 62 | 2 | 0.9 | 4.3 | 0.00 | 0.01 | 0.01 | 90 | 1025.4 |
| 20260506072906 | 62 | 8 | 3.5 | 8.7 | 0.00 | 0.01 | 0.01 | 90 | 1025.5 |
| 20260506071907 | 62 | 349 | 2.6 | 7.0 | 0.00 | 0.01 | 0.01 | 90 | 1025.4 |
| 20260506071406 | 62 | 1 | 1.7 | 4.3 | 0.00 | 0.01 | 0.01 | 90 | 1025.5 |
| 20260506070906 | 62 | 16 | 0.9 | 6.1 | 0.00 | 0.01 | 0.01 | 90 | 1025.5 |
| 20260506062406 | 62 | 16 | 0.9 | 2.6 | 0.00 | 0.01 | 0.01 | 89 | 1025.4 |
| 20260506061905 | 62 | 0 | 1.7 | 4.3 | 0.00 | 0.01 | 0.01 | 89 | 1025.4 |
| 20260506061406 | 62 | 358 | 1.7 | 5.2 | 0.00 | 0.01 | 0.01 | 89 | 1025.5 |
| 20260506060405 | 62 | 25 | 0.9 | 4.3 | 0.00 | 0.01 | 0.01 | 89 | 1025.5 |
| 20260506051405 | 63 | 3 | 1.7 | 2.6 | 0.00 | 0.01 | 0.01 | 88 | 1025.5 |
| 20260506050905 | 63 | 355 | 1.7 | 7.0 | 0.00 | 0.01 | 0.01 | 88 | 1025.5 |
| 20260506050406 | 63 | 347 | 2.6 | 7.0 | 0.00 | 0.01 | 0.01 | 88 | 1025.5 |
| 20260506044905 | 63 | 352 | 2.6 | 7.8 | 0.00 | 0.01 | 0.01 | 88 | 1025.5 |
| 20260506044406 | 63 | 356 | 2.6 | 6.1 | 0.00 | 0.01 | 0.01 | 88 | 1025.5 |
| 20260506043905 | 63 | 352 | 2.6 | 7.8 | 0.00 | 0.01 | 0.01 | 88 | 1025.6 |
| 20260506042905 | 63 | 342 | 3.5 | 7.8 | 0.00 | 0.01 | 0.01 | 87 | 1025.6 |
| 20260506042405 | 63 | 341 | 2.6 | 6.1 | 0.00 | 0.01 | 0.01 | 87 | 1025.6 |
| 20260506041405 | 63 | 331 | 1.7 | 5.2 | 0.00 | 0.01 | 0.01 | 88 | 1025.5 |
| 20260506040905 | 63 | 348 | 2.6 | 7.8 | 0.00 | 0.01 | 0.01 | 88 | 1025.5 |
| 20260506040406 | 63 | 350 | 2.6 | 7.0 | 0.00 | 0.01 | 0.01 | 88 | 1025.5 |
| 20260506035906 | 63 | 0 | 3.5 | 8.7 | 0.00 | 0.01 | 0.01 | 88 | 1025.5 |
| 20260506035405 | 63 | 348 | 5.2 | 10.4 | 0.00 | 0.01 | 0.01 | 88 | 1025.5 |
| 20260506034905 | 63 | 350 | 1.7 | 7.8 | 0.00 | 0.01 | 0.01 | 88 | 1025.6 |
| 20260506034405 | 63 | 352 | 4.3 | 10.4 | 0.00 | 0.01 | 0.01 | 88 | 1025.6 |